GW3062 Weather Reports


Display with metric or nautical units.
time (UTC)temp
F
wind
direction
speed
MPH
gust
MPH
rain 1hr
in
rain 24hr
in
rain mn
in
humidity
%
barometer
mb
20260510174014 86 95 0.0 2.0 0.00 0.00 0.00 30 1013.6
20260510173514 84 113 1.0 3.0 0.00 0.00 0.00 32 1013.6
20260510173014 84 76 1.0 6.0 0.00 0.00 0.00 29 1013.8
20260510172514 84 102 3.0 6.0 0.00 0.00 0.00 29 1013.7
20260510172025 85 112 2.0 3.0 0.00 0.00 0.00 28 1013.8
20260510171514 85 54 0.0 2.0 0.00 0.00 0.00 31 1013.8
20260510171025 86 77 1.0 2.0 0.00 0.00 0.00 28 1013.7
20260510170514 85 68 0.0 2.0 0.00 0.00 0.00 28 1013.7
20260510170014 85 69 1.0 2.0 0.00 0.00 0.00 29 1013.7
20260510165514 84 78 0.0 3.0 0.00 0.00 0.00 31 1013.7
20260510165014 83 44 1.0 3.0 0.00 0.00 0.00 33 1013.7
20260510164525 82 64 0.0 5.0 0.00 0.00 0.00 35 1013.8
20260510164015 84 302 2.0 5.0 0.00 0.00 0.00 31 1013.9
20260510163514 84 103 1.0 4.0 0.00 0.00 0.00 36 1014.0
20260510163015 84 120 1.0 3.0 0.00 0.00 0.00 31 1014.0
20260510162515 84 98 0.0 3.0 0.00 0.00 0.00 35 1014.1
20260510162025 84 104 1.0 4.0 0.00 0.00 0.00 35 1014.0
20260510161525 83 98 1.0 2.0 0.00 0.00 0.00 38 1014.0
20260510161014 83 117 0.0 2.0 0.00 0.00 0.00 37 1014.1
20260510160514 83 84 0.0 4.0 0.00 0.00 0.00 40 1014.1
20260510160014 83 86 2.0 4.0 0.00 0.00 0.00 39 1014.2
20260510155514 83 94 0.0 3.0 0.00 0.00 0.00 42 1014.1
20260510155014 83 86 0.0 3.0 0.00 0.00 0.00 41 1014.2
20260510154514 82 78 0.0 2.0 0.00 0.00 0.00 42 1014.2
20260510154026 81 101 0.0 2.0 0.00 0.00 0.00 43 1014.4
20260510153514 80 70 0.0 3.0 0.00 0.00 0.00 45 1014.3
20260510153014 80 129 1.0 5.0 0.00 0.00 0.00 44 1014.4
20260510152525 81 98 1.0 5.0 0.00 0.00 0.00 42 1014.5
20260510151525 82 102 1.0 3.0 0.00 0.00 0.00 41 1014.4
20260510150014 79 96 1.0 3.0 0.00 0.00 0.00 47 1014.4
20260510145514 79 110 1.0 3.0 0.00 0.00 0.00 45 1014.4
20260510145015 78 58 0.0 4.0 0.00 0.00 0.00 49 1014.4
20260510144514 78 106 1.0 4.0 0.00 0.00 0.00 47 1014.4
20260510144025 78 104 0.0 3.0 0.00 0.00 0.00 49 1014.5
20260510143514 77 59 0.0 2.0 0.00 0.00 0.00 51 1014.5
20260510143025 77 86 0.0 2.0 0.00 0.00 0.00 53 1014.4
20260510142514 76 83 0.0 2.0 0.00 0.00 0.00 54 1014.4
20260510142014 76 70 0.0 2.0 0.00 0.00 0.00 55 1014.5
20260510141520 75 90 0.0 4.0 0.00 0.00 0.00 54 1014.5
20260510141014 75 113 2.0 4.0 0.00 0.00 0.00 53 1014.5
20260510140014 75 131 1.0 3.0 0.00 0.00 0.00 55 1014.5
20260510135517 75 105 1.0 2.0 0.00 0.00 0.00 56 1014.5
20260510135014 74 89 1.0 3.0 0.00 0.00 0.00 59 1014.5
20260510134514 74 83 0.0 3.0 0.00 0.00 0.00 61 1014.6
20260510134014 74 91 2.0 3.0 0.00 0.00 0.00 58 1014.5
20260510133526 74 82 1.0 2.0 0.00 0.00 0.00 60 1014.4
20260510133015 73 84 0.0 1.0 0.00 0.00 0.00 67 1014.4
20260510132515 72 84 0.0 2.0 0.00 0.00 0.00 70 1014.4
20260510132014 72 84 0.0 2.0 0.00 0.00 0.00 70 1014.4
20260510131526 71 98 0.0 2.0 0.00 0.00 0.00 70 1014.4
20260510131014 71 86 0.0 1.0 0.00 0.00 0.00 73 1014.4
20260510130514 70 86 0.0 1.0 0.00 0.00 0.00 76 1014.3
20260510130014 69 86 0.0 1.0 0.00 0.00 0.00 78 1014.3
20260510125514 68 100 0.0 1.0 0.00 0.00 0.00 79 1014.2
20260510125015 68 100 0.0 1.0 0.00 0.00 0.00 83 1014.3
20260510124515 66 70 0.0 1.0 0.00 0.00 0.00 86 1014.4
20260510124026 65 58 0.0 0.0 0.00 0.00 0.00 90 1014.4
20260510123514 64 58 0.0 0.0 0.00 0.00 0.00 92 1014.2
20260510123014 63 58 0.0 0.0 0.00 0.00 0.00 94 1014.2
20260510122514 62 58 0.0 0.0 0.00 0.00 0.00 95 1014.1
20260510122014 61 58 0.0 0.0 0.00 0.00 0.00 97 1014.0
20260510121515 60 58 0.0 0.0 0.00 0.00 0.00 97 1013.8
20260510121015 59 58 0.0 0.0 0.00 0.00 0.00 97 1013.8
20260510120525 59 58 0.0 0.0 0.00 0.00 0.00 98 1013.7
20260510120016 57 58 0.0 0.0 0.00 0.00 0.00 98 1013.5
20260510115515 56 58 0.0 1.0 0.00 0.00 0.00 98 1013.3
20260510115015 55 58 0.0 1.0 0.00 0.00 0.00 98 1013.3
20260510114526 55 58 0.0 1.0 0.00 0.00 0.00 98 1013.1
20260510114014 54 58 0.0 1.0 0.00 0.00 0.00 98 1013.2
20260510113515 53 58 0.0 0.0 0.00 0.00 0.00 98 1013.1
20260510113015 53 58 0.0 0.0 0.00 0.00 0.00 98 1013.0
20260510112515 53 58 0.0 0.0 0.00 0.00 0.00 98 1012.8
20260510112015 53 58 0.0 0.0 0.00 0.00 0.00 98 1012.8
20260510111526 52 58 0.0 0.0 0.00 0.00 0.00 98 1012.8
20260510111015 52 58 0.0 0.0 0.00 0.00 0.00 98 1012.7
20260510110515 51 58 0.0 0.0 0.00 0.00 0.00 98 1012.6
20260510110015 51 58 0.0 0.0 0.00 0.00 0.00 97 1012.5
20260510105515 51 58 0.0 0.0 0.00 0.00 0.00 97 1012.4
20260510105015 51 58 0.0 0.0 0.00 0.00 0.00 97 1012.3
20260510104526 51 58 0.0 0.0 0.00 0.00 0.00 97 1012.3
20260510104014 51 58 0.0 0.0 0.00 0.00 0.00 97 1012.2
20260510103515 51 58 0.0 0.0 0.00 0.00 0.00 97 1012.2
20260510103015 51 58 0.0 0.0 0.00 0.00 0.00 97 1012.0
20260510102515 52 58 0.0 0.0 0.00 0.00 0.00 97 1012.0
20260510102015 52 58 0.0 0.0 0.00 0.00 0.00 97 1011.9
20260510101515 52 58 0.0 0.0 0.00 0.00 0.00 97 1011.8
20260510101015 52 58 0.0 0.0 0.00 0.00 0.00 97 1011.7
20260510100515 52 58 0.0 0.0 0.00 0.00 0.00 97 1011.7
20260510100015 52 58 0.0 0.0 0.00 0.00 0.00 97 1011.6
20260510095514 52 58 0.0 0.0 0.00 0.00 0.00 97 1011.4
20260510095015 53 56 0.0 0.0 0.00 0.00 0.00 97 1011.3
20260510094526 53 56 0.0 0.0 0.00 0.00 0.00 97 1011.4
20260510094026 53 56 0.0 0.0 0.00 0.00 0.00 97 1011.4
20260510093515 53 56 0.0 0.0 0.00 0.00 0.00 97 1011.3
20260510093015 53 56 0.0 0.0 0.00 0.00 0.00 97 1011.4
20260510092515 53 56 0.0 0.0 0.00 0.00 0.00 97 1011.2
20260510091015 54 56 0.0 0.0 0.00 0.00 0.00 97 1011.2
20260510090515 54 56 0.0 0.0 0.00 0.00 0.00 97 1011.3
20260510084515 54 56 0.0 0.0 0.00 0.00 0.00 97 1011.1
20260510084015 54 56 0.0 0.0 0.00 0.00 0.00 97 1011.0
20260510083514 54 56 0.0 0.0 0.00 0.00 0.00 97 1011.0
20260510083015 54 56 0.0 0.0 0.00 0.00 0.00 97 1010.9
20260510082515 54 56 0.0 0.0 0.00 0.00 0.00 97 1010.9
20260510082027 54 56 0.0 0.0 0.00 0.00 0.00 96 1011.0
20260510081515 54 56 0.0 0.0 0.00 0.00 0.00 96 1010.9
20260510081015 55 56 0.0 0.0 0.00 0.00 0.00 96 1010.8
20260510080515 55 56 0.0 0.0 0.00 0.00 0.00 96 1010.7
20260510080015 55 56 0.0 0.0 0.00 0.00 0.00 96 1010.8
20260510075515 55 56 0.0 0.0 0.00 0.00 0.00 96 1010.7
20260510075015 55 56 0.0 0.0 0.00 0.00 0.00 97 1010.7
20260510074515 55 56 0.0 0.0 0.00 0.00 0.00 97 1010.6
20260510074015 55 56 0.0 0.0 0.00 0.00 0.00 97 1010.6
20260510073526 55 56 0.0 0.0 0.00 0.00 0.00 97 1010.6
20260510073016 55 56 0.0 0.0 0.00 0.00 0.00 96 1010.5
20260510072515 55 56 0.0 0.0 0.00 0.00 0.00 96 1010.6
20260510072015 56 56 0.0 0.0 0.00 0.00 0.00 96 1010.6
20260510071515 56 56 0.0 0.0 0.00 0.00 0.00 96 1010.6
20260510071015 56 56 0.0 0.0 0.00 0.00 0.00 96 1010.4
20260510070515 56 56 0.0 0.0 0.00 0.00 0.00 96 1010.4
20260510070015 56 56 0.0 0.0 0.00 0.00 0.00 96 1010.3
20260510065527 56 56 0.0 0.0 0.00 0.00 0.00 96 1010.2
20260510065015 56 56 0.0 0.0 0.00 0.00 0.00 96 1010.3
20260510064515 56 56 0.0 0.0 0.00 0.00 0.00 96 1010.3
20260510064015 56 56 0.0 0.0 0.00 0.00 0.00 96 1010.3
20260510063526 56 56 0.0 0.0 0.00 0.00 0.00 96 1010.4
20260510063015 57 56 0.0 0.0 0.00 0.00 0.00 96 1010.4
20260510062526 57 56 0.0 0.0 0.00 0.00 0.00 96 1010.3
20260510062015 57 56 0.0 0.0 0.00 0.00 0.00 96 1010.3
20260510061516 57 56 0.0 0.0 0.00 0.00 0.00 95 1010.4
20260510061016 57 56 0.0 0.0 0.00 0.00 0.00 95 1010.4
20260510060515 57 56 0.0 0.0 0.00 0.00 0.00 95 1010.6
20260510060015 57 56 0.0 0.0 0.00 0.00 0.00 95 1010.5
20260510055515 58 56 0.0 0.0 0.00 0.00 0.00 96 1010.5
20260510055016 58 56 0.0 0.0 0.00 0.00 0.00 96 1010.5
20260510054515 57 56 0.0 0.0 0.00 0.00 0.00 96 1010.4
20260510054016 57 56 0.0 0.0 0.00 0.00 0.00 95 1010.6
20260510053515 58 56 0.0 0.0 0.00 0.00 0.00 95 1010.5
20260510053026 58 56 0.0 0.0 0.00 0.00 0.00 95 1010.5
20260510052515 58 56 0.0 0.0 0.00 0.00 0.00 95 1010.5
20260510052015 58 56 0.0 0.0 0.00 0.00 0.00 95 1010.6
20260510051515 58 56 0.0 0.0 0.00 0.00 0.00 95 1010.7
20260510051015 58 56 0.0 0.0 0.00 0.00 0.00 95 1010.6
20260510050515 59 56 0.0 0.0 0.00 0.00 0.00 95 1010.6
20260510050015 59 56 0.0 1.0 0.00 0.00 0.00 95 1010.6
20260510045515 59 56 0.0 1.0 0.00 0.00 0.00 95 1010.5
20260510045016 59 56 0.0 0.0 0.00 0.00 0.00 95 1010.4
20260510044516 59 56 0.0 0.0 0.00 0.00 0.00 95 1010.6
20260510044015 59 56 0.0 0.0 0.00 0.00 0.00 94 1010.5
20260510043526 59 56 0.0 0.0 0.00 0.00 0.00 94 1010.8
20260510043015 59 56 0.0 0.0 0.00 0.00 0.00 94 1010.9
20260510042515 59 56 0.0 0.0 0.00 0.00 0.00 94 1010.7
20260510042016 59 56 0.0 0.0 0.00 0.00 0.00 94 1010.6
20260510041515 59 56 0.0 0.0 0.00 0.00 0.00 94 1010.7
20260510041017 59 56 0.0 0.0 0.00 0.00 0.00 93 1010.6
20260510040515 60 56 0.0 0.0 0.00 0.00 0.00 93 1010.6
20260510040016 60 56 0.0 0.0 0.00 0.00 0.00 93 1010.5
20260510035515 60 56 0.0 0.0 0.00 0.00 0.00 93 1010.5
20260510035026 60 56 0.0 0.0 0.00 0.00 0.00 92 1010.5
20260510034516 60 56 0.0 0.0 0.00 0.00 0.00 92 1010.5
20260510034015 60 56 0.0 0.0 0.00 0.00 0.00 92 1010.6
20260510033515 60 56 0.0 0.0 0.00 0.00 0.00 92 1010.6
20260510033015 60 56 0.0 0.0 0.00 0.00 0.00 92 1010.6
20260510032526 60 56 0.0 0.0 0.00 0.00 0.00 92 1010.5
20260510032026 60 56 0.0 0.0 0.00 0.00 0.00 92 1010.6
20260510031516 60 56 0.0 0.0 0.00 0.00 0.00 91 1010.7
20260510031016 60 56 0.0 0.0 0.00 0.00 0.00 91 1010.7
20260510030515 61 56 0.0 0.0 0.00 0.00 0.00 91 1010.6
20260510030015 61 56 0.0 0.0 0.00 0.00 0.00 91 1010.6
20260510025515 61 56 0.0 0.0 0.00 0.00 0.00 91 1010.6
20260510025015 61 56 0.0 0.0 0.00 0.00 0.00 91 1010.6
20260510024515 61 56 0.0 0.0 0.00 0.00 0.00 90 1010.5
20260510024016 61 56 0.0 0.0 0.00 0.00 0.00 90 1010.5
20260510023515 61 56 0.0 0.0 0.00 0.00 0.00 89 1010.4
20260510023016 61 56 0.0 0.0 0.00 0.00 0.00 89 1010.4
20260510022516 61 56 0.0 0.0 0.00 0.00 0.00 88 1010.4
20260510022016 62 56 0.0 0.0 0.00 0.00 0.00 88 1010.3
20260510021516 62 56 0.0 0.0 0.00 0.00 0.00 88 1010.2
20260510020016 62 56 0.0 0.0 0.00 0.00 0.00 86 1010.0
20260510015515 63 56 0.0 0.0 0.00 0.00 0.00 85 1009.9
20260510015016 63 56 0.0 0.0 0.00 0.00 0.00 85 1009.9
20260510014527 63 56 0.0 0.0 0.00 0.00 0.00 85 1009.9
20260510014016 64 56 0.0 0.0 0.00 0.00 0.00 84 1009.8
20260510013516 64 56 0.0 0.0 0.00 0.00 0.00 84 1009.7
20260510013026 64 56 0.0 0.0 0.00 0.00 0.00 83 1009.7
20260510012527 64 56 0.0 0.0 0.00 0.00 0.00 83 1009.5
20260510012016 65 56 0.0 0.0 0.00 0.00 0.00 82 1009.5
20260510011516 65 56 0.0 1.0 0.00 0.00 0.00 82 1009.5
20260510011016 65 56 0.0 1.0 0.00 0.00 0.00 82 1009.4
20260510010515 65 56 0.0 1.0 0.00 0.00 0.00 82 1009.3
20260510010027 65 56 0.0 1.0 0.00 0.00 0.00 82 1009.2
20260510005516 65 56 0.0 0.0 0.00 0.00 0.00 81 1009.2
20260510005016 66 56 0.0 0.0 0.00 0.00 0.00 80 1009.0
20260510004516 66 56 0.0 0.0 0.00 0.00 0.00 79 1009.0
20260510004016 67 56 0.0 0.0 0.00 0.00 0.00 78 1008.9
20260510003516 67 55 0.0 0.0 0.00 0.00 0.00 77 1008.8
20260510003015 68 56 0.0 0.0 0.00 0.00 0.00 76 1008.7
20260510002527 68 56 0.0 1.0 0.00 0.00 0.00 76 1008.6
20260510002027 68 56 0.0 1.0 0.00 0.00 0.00 75 1008.6
20260510001518 69 56 0.0 1.0 0.00 0.00 0.00 74 1008.5
20260510001017 69 56 0.0 1.0 0.00 0.00 0.00 74 1008.5
20260510000516 69 56 0.0 1.0 0.00 0.00 0.00 74 1008.4
20260510000016 69 55 0.0 0.0 0.00 0.00 0.00 73 1008.3
20260509235516 70 53 0.0 2.0 0.00 0.00 0.00 73 1008.2
20260509235016 70 53 0.0 2.0 0.00 0.00 0.00 72 1008.2
20260509234527 70 55 0.0 1.0 0.00 0.00 0.00 72 1008.2
20260509234015 70 52 0.0 3.0 0.00 0.00 0.00 72 1008.3
20260509233527 70 49 1.0 3.0 0.00 0.00 0.00 71 1008.3
20260509233016 71 56 0.0 4.0 0.00 0.00 0.00 71 1008.3
20260509232527 71 60 2.0 6.0 0.00 0.00 0.00 70 1008.1
20260509232016 71 47 3.0 5.0 0.00 0.00 0.00 70 1008.0
20260509231516 71 61 0.0 4.0 0.00 0.00 0.00 70 1007.9
20260509231016 71 58 0.0 4.0 0.00 0.00 0.00 69 1007.8
20260509230517 72 40 2.0 4.0 0.00 0.00 0.00 69 1008.0
20260509230027 72 59 0.0 5.0 0.00 0.00 0.00 69 1008.0
20260509225516 72 58 2.0 5.0 0.00 0.00 0.00 69 1007.9
20260509225016 72 66 2.0 4.0 0.00 0.00 0.00 69 1007.9
20260509224516 72 46 2.0 6.0 0.00 0.00 0.00 68 1007.7
20260509224016 72 59 0.0 6.0 0.00 0.00 0.00 68 1007.5
20260509223516 72 51 1.0 4.0 0.00 0.00 0.00 67 1007.5
20260509223016 73 42 1.0 4.0 0.00 0.00 0.00 66 1007.5
20260509222516 73 55 0.0 3.0 0.00 0.00 0.00 66 1007.5
20260509222027 73 74 0.0 2.0 0.00 0.00 0.00 65 1007.5
20260509221515 73 56 0.0 5.0 0.00 0.00 0.00 64 1007.5
20260509221016 73 49 1.0 5.0 0.00 0.00 0.00 64 1007.5
20260509220516 73 45 1.0 5.0 0.00 0.00 0.00 64 1007.4
20260509220016 73 50 3.0 5.0 0.00 0.00 0.00 64 1007.5
20260509215516 73 58 2.0 6.0 0.00 0.00 0.00 64 1007.6
20260509215017 73 72 2.0 6.0 0.00 0.00 0.00 65 1007.6
20260509214516 73 44 1.0 4.0 0.00 0.00 0.00 64 1007.6
20260509214016 73 52 2.0 6.0 0.00 0.00 0.00 64 1007.6
20260509213527 74 44 2.0 7.0 0.00 0.00 0.00 64 1007.5
20260509213016 74 41 2.0 5.0 0.00 0.00 0.00 63 1007.6
20260509212516 74 36 1.0 5.0 0.00 0.00 0.00 63 1007.5
20260509212027 74 64 1.0 4.0 0.00 0.00 0.00 62 1007.5
20260509211527 74 49 1.0 4.0 0.00 0.00 0.00 63 1007.5
20260509211016 74 80 1.0 6.0 0.00 0.00 0.00 64 1007.6
20260509210516 74 53 1.0 6.0 0.00 0.00 0.00 63 1007.5
20260509210016 73 56 1.0 5.0 0.00 0.00 0.00 64 1007.4
20260509205527 73 35 1.0 5.0 0.00 0.00 0.00 63 1007.3
20260509205016 73 44 1.0 7.0 0.00 0.00 0.00 64 1007.4
20260509204516 73 57 3.0 7.0 0.00 0.00 0.00 64 1007.3
20260509204016 73 53 2.0 5.0 0.00 0.00 0.00 63 1007.1
20260509203516 73 49 2.0 4.0 0.00 0.00 0.00 62 1007.1
20260509203028 74 51 1.0 7.0 0.00 0.00 0.00 63 1007.2
20260509202516 74 56 2.0 7.0 0.00 0.00 0.00 63 1007.4
20260509202016 74 51 1.0 4.0 0.00 0.00 0.00 62 1007.5
20260509201517 74 84 0.0 4.0 0.00 0.00 0.00 64 1007.5
20260509201016 74 65 1.0 5.0 0.00 0.00 0.00 63 1007.5
20260509200516 74 39 2.0 5.0 0.00 0.00 0.00 63 1007.4
20260509200017 74 75 1.0 7.0 0.00 0.00 0.00 64 1007.6
20260509195519 73 43 2.0 7.0 0.00 0.00 0.00 64 1007.6
20260509195016 73 34 2.0 7.0 0.00 0.00 0.00 64 1007.6
20260509194527 73 38 2.0 5.0 0.00 0.00 0.00 63 1007.7
20260509194016 74 62 1.0 4.0 0.00 0.00 0.00 63 1007.7
20260509193528 74 68 0.0 6.0 0.00 0.00 0.00 64 1007.8
20260509193017 74 79 3.0 8.0 0.00 0.00 0.00 64 1007.8
20260509192517 74 51 3.0 8.0 0.00 0.00 0.00 64 1007.9
20260509192017 74 60 1.0 6.0 0.00 0.00 0.00 65 1007.9
20260509191517 74 53 1.0 8.0 0.00 0.00 0.00 64 1008.2
20260509191016 73 58 2.0 8.0 0.00 0.00 0.00 64 1008.3
20260509190516 73 86 2.0 9.0 0.00 0.00 0.00 64 1008.2
20260509190016 73 23 4.0 9.0 0.00 0.00 0.00 63 1008.2
20260509185527 74 39 2.0 7.0 0.00 0.00 0.00 63 1008.2
20260509185017 74 56 3.0 8.0 0.00 0.00 0.00 61 1008.2
20260509184516 74 62 1.0 8.0 0.00 0.00 0.00 65 1008.1
20260509184016 74 63 3.0 7.0 0.00 0.00 0.00 62 1008.2
20260509183516 74 65 3.0 8.0 0.00 0.00 0.00 63 1008.1
20260509183027 74 36 4.0 9.0 0.00 0.00 0.00 61 1008.2
20260509182527 75 28 2.0 9.0 0.00 0.00 0.00 61 1008.3
20260509182016 75 31 3.0 6.0 0.00 0.00 0.00 62 1008.3
20260509181527 75 58 2.0 5.0 0.00 0.00 0.00 61 1008.5
20260509181027 75 79 1.0 8.0 0.00 0.00 0.00 61 1008.5
20260509180517 74 72 3.0 8.0 0.00 0.00 0.00 61 1008.8
20260509180017 74 35 2.0 6.0 0.00 0.00 0.00 63 1008.9
20260509175516 74 46 3.0 6.0 0.00 0.00 0.00 63 1008.9
20260509175016 73 61 3.0 6.0 0.00 0.00 0.00 64 1008.8
20260509174516 73 35 3.0 6.0 0.00 0.00 0.00 63 1008.8